sat.trackr.live / text

‹ back to catalog

STARLINK-4097

NORAD 53265 · 2022-086Z

PAYLOAD ACTIVE UNKNOWN

§ Identity

Operator
Country
US
Launch date
2022-07-24
Launch site
AFETR
Launch vehicle
Mass (kg)
RCS (m²)

Purposes: comms

External: N2YO · Heavens-Above · Gunter

§ Orbital elements

Epoch: 2026-09-19T22:53:48.199776Z

Period
93.79 min
Inclination
53.1614°
Eccentricity
0.0001141
Mean motion
15.35397780 rev/d
Perigee alt
459.0 km
Apogee alt
460.5 km
Semi-major
6,837.9 km
B*
1.7680e-5
RAAN
28.9019°
Arg perigee
78.8989°
Mean anomaly
281.2142°
Rev number
23,057

§ Raw data

STARLINK-40971 53265U 22086Z   26262.95403009  .00000236  00000+0  17680-4 0  99932 53265  53.1614  28.9019 0001141  78.8989 281.2142 15.35397780230573

JSON: /api/v1/satellites/53265 · /tle

For live sub-satellite position, see the globe view (requires WebGL).

§ Visibility from observer

Set your observer location to see the next 7 days of passes ≥ 10°. The values pass through the URL so the page stays shareable.

No JS? Fill the form by hand. The geolocation button needs JavaScript.